"Time","Value","Approval","myLocation"
"2023-05-06 00:00",10.04233,"Approved","OW357"
"2023-05-06 01:00",10.04425,"Approved","OW357"
"2023-05-06 02:00",10.04475,"Approved","OW357"
"2023-05-06 03:00",10.04883,"Approved","OW357"
"2023-05-06 04:00",10.04725,"Approved","OW357"
"2023-05-06 05:00",10.04233,"Approved","OW357"
"2023-05-06 06:00",10.04767,"Approved","OW357"
"2023-05-06 07:00",10.04775,"Approved","OW357"
"2023-05-06 08:00",10.048,"Approved","OW357"
"2023-05-06 09:00",10.0515,"Approved","OW357"
"2023-05-06 10:00",10.05525,"Approved","OW357"
"2023-05-06 11:00",10.0535,"Approved","OW357"
"2023-05-06 12:00",10.05475,"Approved","OW357"
"2023-05-06 13:00",10.05358,"Approved","OW357"
"2023-05-06 14:00",10.053,"Approved","OW357"
"2023-05-06 15:00",10.05658,"Approved","OW357"
"2023-05-06 16:00",10.05075,"Approved","OW357"
"2023-05-06 17:00",10.05083,"Approved","OW357"
"2023-05-06 18:00",10.0555,"Approved","OW357"
"2023-05-06 19:00",10.053,"Approved","OW357"
"2023-05-06 20:00",10.05425,"Approved","OW357"
"2023-05-06 21:00",10.05658,"Approved","OW357"
"2023-05-06 22:00",10.05708,"Approved","OW357"
"2023-05-06 23:00",10.05717,"Approved","OW357"
"2023-05-07 00:00",10.05958,"Approved","OW357"
"2023-05-07 01:00",10.05917,"Approved","OW357"
"2023-05-07 02:00",10.058,"Approved","OW357"
"2023-05-07 03:00",10.05975,"Approved","OW357"
"2023-05-07 04:00",10.05692,"Approved","OW357"
"2023-05-07 05:00",10.05867,"Approved","OW357"
"2023-05-07 06:00",10.06242,"Approved","OW357"
"2023-05-07 07:00",10.06667,"Approved","OW357"
"2023-05-07 08:00",10.06583,"Approved","OW357"
"2023-05-07 09:00",10.0705,"Approved","OW357"
"2023-05-07 10:00",10.06592,"Approved","OW357"
"2023-05-07 11:00",10.06392,"Approved","OW357"
"2023-05-07 12:00",10.06275,"Approved","OW357"
"2023-05-07 13:00",10.06225,"Approved","OW357"
"2023-05-07 14:00",10.06508,"Approved","OW357"
"2023-05-07 15:00",10.06617,"Approved","OW357"
"2023-05-07 16:00",10.06325,"Approved","OW357"
"2023-05-07 17:00",10.0665,"Approved","OW357"
"2023-05-07 18:00",10.06267,"Approved","OW357"
"2023-05-07 19:00",10.06267,"Approved","OW357"
"2023-05-07 20:00",10.06425,"Approved","OW357"
"2023-05-07 21:00",10.06725,"Approved","OW357"
"2023-05-07 22:00",10.06483,"Approved","OW357"
"2023-05-07 23:00",10.0655,"Approved","OW357"
"2023-05-08 00:00",10.06467,"Approved","OW357"
"2023-05-08 01:00",10.06992,"Approved","OW357"
"2023-05-08 02:00",10.065,"Approved","OW357"
"2023-05-08 03:00",10.06442,"Approved","OW357"
"2023-05-08 04:00",10.06358,"Approved","OW357"
"2023-05-08 05:00",10.06325,"Approved","OW357"
"2023-05-08 06:00",10.06683,"Approved","OW357"
"2023-05-08 07:00",10.06808,"Approved","OW357"
"2023-05-08 08:00",10.06475,"Approved","OW357"
"2023-05-08 09:00",10.06717,"Approved","OW357"
"2023-05-08 10:00",10.06525,"Approved","OW357"
"2023-05-08 11:00",10.06617,"Approved","OW357"
"2023-05-08 12:00",10.06317,"Approved","OW357"
"2023-05-08 13:00",10.06542,"Approved","OW357"
"2023-05-08 14:00",10.069,"Approved","OW357"
"2023-05-08 15:00",10.06575,"Approved","OW357"
"2023-05-08 16:00",10.06767,"Approved","OW357"
"2023-05-08 17:00",10.06817,"Approved","OW357"
"2023-05-08 18:00",10.0695,"Approved","OW357"
"2023-05-08 19:00",10.06833,"Approved","OW357"
"2023-05-08 20:00",10.07225,"Approved","OW357"
"2023-05-08 21:00",10.072,"Approved","OW357"
"2023-05-08 22:00",10.07383,"Approved","OW357"
"2023-05-08 23:00",10.07633,"Approved","OW357"
"2023-05-09 00:00",10.07517,"Approved","OW357"
"2023-05-09 01:00",10.07475,"Approved","OW357"
"2023-05-09 02:00",10.07917,"Approved","OW357"
"2023-05-09 03:00",10.0835,"Approved","OW357"
"2023-05-09 04:00",10.08442,"Approved","OW357"
"2023-05-09 05:00",10.085,"Approved","OW357"
"2023-05-09 06:00",10.08833,"Approved","OW357"
"2023-05-09 07:00",10.08792,"Approved","OW357"
"2023-05-09 08:00",10.08633,"Approved","OW357"
"2023-05-09 09:00",10.08867,"Approved","OW357"
"2023-05-09 10:00",10.088,"Approved","OW357"
"2023-05-09 11:00",10.09008,"Approved","OW357"
"2023-05-09 12:00",10.08433,"Approved","OW357"
"2023-05-09 13:00",10.08317,"Approved","OW357"
"2023-05-09 14:00",10.08358,"Approved","OW357"
"2023-05-09 15:00",10.08217,"Approved","OW357"
"2023-05-09 16:00",10.08375,"Approved","OW357"
"2023-05-09 17:00",10.08775,"Approved","OW357"
"2023-05-09 18:00",10.0835,"Approved","OW357"
"2023-05-09 19:00",10.08683,"Approved","OW357"
"2023-05-09 20:00",10.088,"Approved","OW357"
"2023-05-09 21:00",10.08875,"Approved","OW357"
"2023-05-09 22:00",10.08517,"Approved","OW357"
"2023-05-09 23:00",10.08642,"Approved","OW357"
"2023-05-10 00:00",10.08875,"Approved","OW357"
"2023-05-10 01:00",10.08625,"Approved","OW357"
"2023-05-10 02:00",10.08792,"Approved","OW357"
"2023-05-10 03:00",10.0855,"Approved","OW357"
"2023-05-10 04:00",10.08917,"Approved","OW357"
"2023-05-10 05:00",10.09275,"Approved","OW357"
"2023-05-10 06:00",10.0915,"Approved","OW357"
"2023-05-10 07:00",10.08975,"Approved","OW357"
"2023-05-10 08:00",10.09025,"Approved","OW357"
"2023-05-10 09:00",10.0885,"Approved","OW357"
"2023-05-10 10:00",10.09,"Approved","OW357"
"2023-05-10 11:00",10.09067,"Approved","OW357"
"2023-05-10 12:00",10.08925,"Approved","OW357"
"2023-05-10 13:00",10.08842,"Approved","OW357"
"2023-05-10 14:00",10.087,"Approved","OW357"
"2023-05-10 15:00",10.08808,"Approved","OW357"
"2023-05-10 16:00",10.09042,"Approved","OW357"
"2023-05-10 17:00",10.09083,"Approved","OW357"
"2023-05-10 18:00",10.089,"Approved","OW357"
"2023-05-10 19:00",10.09008,"Approved","OW357"
"2023-05-10 20:00",10.09383,"Approved","OW357"
"2023-05-10 21:00",10.09792,"Approved","OW357"
"2023-05-10 22:00",10.09692,"Approved","OW357"
"2023-05-10 23:00",10.09667,"Approved","OW357"
"2023-05-11 00:00",10.09917,"Approved","OW357"
"2023-05-11 01:00",10.10158,"Approved","OW357"
"2023-05-11 02:00",10.10417,"Approved","OW357"
"2023-05-11 03:00",10.10417,"Approved","OW357"
"2023-05-11 04:00",10.10367,"Approved","OW357"
"2023-05-11 05:00",10.108,"Approved","OW357"
"2023-05-11 06:00",10.10717,"Approved","OW357"
"2023-05-11 07:00",10.10975,"Approved","OW357"
"2023-05-11 08:00",10.11108,"Approved","OW357"
"2023-05-11 09:00",10.1105,"Approved","OW357"
"2023-05-11 10:00",10.10758,"Approved","OW357"
"2023-05-11 11:00",10.10675,"Approved","OW357"
"2023-05-11 12:00",10.102,"Approved","OW357"
"2023-05-11 13:00",10.10725,"Approved","OW357"
"2023-05-11 14:00",10.10408,"Approved","OW357"
"2023-05-11 15:00",10.102,"Approved","OW357"
"2023-05-11 16:00",10.10192,"Approved","OW357"
"2023-05-11 17:00",10.10517,"Approved","OW357"
"2023-05-11 18:00",10.10467,"Approved","OW357"
"2023-05-11 19:00",10.10575,"Approved","OW357"
"2023-05-11 20:00",10.10833,"Approved","OW357"
"2023-05-11 21:00",10.111,"Approved","OW357"
"2023-05-11 22:00",10.11167,"Approved","OW357"
"2023-05-11 23:00",10.11308,"Approved","OW357"
"2023-05-12 00:00",10.11808,"Approved","OW357"
"2023-05-12 01:00",10.119,"Approved","OW357"
"2023-05-12 02:00",10.1245,"Approved","OW357"
"2023-05-12 03:00",10.12042,"Approved","OW357"
"2023-05-12 04:00",10.11933,"Approved","OW357"
"2023-05-12 05:00",10.12158,"Approved","OW357"
"2023-05-12 06:00",10.12367,"Approved","OW357"
"2023-05-12 07:00",10.12558,"Approved","OW357"
"2023-05-12 08:00",10.12725,"Approved","OW357"
"2023-05-12 09:00",10.12767,"Approved","OW357"
"2023-05-12 10:00",10.1285,"Approved","OW357"
"2023-05-12 11:00",10.12475,"Approved","OW357"
"2023-05-12 12:00",10.12592,"Approved","OW357"
"2023-05-12 13:00",10.12275,"Approved","OW357"
"2023-05-12 14:00",10.12333,"Approved","OW357"
"2023-05-12 15:00",10.12483,"Approved","OW357"
"2023-05-12 16:00",10.12158,"Approved","OW357"
"2023-05-12 17:00",10.121,"Approved","OW357"
"2023-05-12 18:00",10.12625,"Approved","OW357"
"2023-05-12 19:00",10.12575,"Approved","OW357"
"2023-05-12 20:00",10.12508,"Approved","OW357"
"2023-05-12 21:00",10.13217,"Approved","OW357"
"2023-05-12 22:00",10.13275,"Approved","OW357"
"2023-05-12 23:00",10.12925,"Approved","OW357"
"2023-05-13 00:00",10.13375,"Approved","OW357"
"2023-05-13 01:00",10.13483,"Approved","OW357"
"2023-05-13 02:00",10.134,"Approved","OW357"
"2023-05-13 03:00",10.13642,"Approved","OW357"
"2023-05-13 04:00",10.14067,"Approved","OW357"
"2023-05-13 05:00",10.13717,"Approved","OW357"
"2023-05-13 06:00",10.14092,"Approved","OW357"
"2023-05-13 07:00",10.141,"Approved","OW357"
"2023-05-13 08:00",10.14275,"Approved","OW357"
"2023-05-13 09:00",10.13858,"Approved","OW357"
"2023-05-13 10:00",10.13917,"Approved","OW357"
"2023-05-13 11:00",10.14067,"Approved","OW357"
"2023-05-13 12:00",10.13742,"Approved","OW357"
"2023-05-13 13:00",10.13775,"Approved","OW357"
"2023-05-13 14:00",10.135,"Approved","OW357"
"2023-05-13 15:00",10.13142,"Approved","OW357"
"2023-05-13 16:00",10.1265,"Approved","OW357"
"2023-05-13 17:00",10.12783,"Approved","OW357"
"2023-05-13 18:00",10.12517,"Approved","OW357"
"2023-05-13 19:00",10.12558,"Approved","OW357"
"2023-05-13 20:00",10.13342,"Approved","OW357"
"2023-05-13 21:00",10.13233,"Approved","OW357"
"2023-05-13 22:00",10.137,"Approved","OW357"
"2023-05-13 23:00",10.137,"Approved","OW357"
"2023-05-14 00:00",10.13375,"Approved","OW357"
"2023-05-14 01:00",10.13858,"Approved","OW357"
"2023-05-14 02:00",10.13758,"Approved","OW357"
"2023-05-14 03:00",10.13933,"Approved","OW357"
"2023-05-14 04:00",10.13883,"Approved","OW357"
"2023-05-14 05:00",10.13508,"Approved","OW357"
"2023-05-14 06:00",10.13625,"Approved","OW357"
"2023-05-14 07:00",10.13683,"Approved","OW357"
"2023-05-14 08:00",10.13383,"Approved","OW357"
"2023-05-14 09:00",10.134,"Approved","OW357"
"2023-05-14 10:00",10.13008,"Approved","OW357"
"2023-05-14 11:00",10.12842,"Approved","OW357"
"2023-05-14 12:00",10.12858,"Approved","OW357"
"2023-05-14 13:00",10.129,"Approved","OW357"
"2023-05-14 14:00",10.12867,"Approved","OW357"
"2023-05-14 15:00",10.12658,"Approved","OW357"
"2023-05-14 16:00",10.12692,"Approved","OW357"
"2023-05-14 17:00",10.1275,"Approved","OW357"
"2023-05-14 18:00",10.13325,"Approved","OW357"
"2023-05-14 19:00",10.13408,"Approved","OW357"
"2023-05-14 20:00",10.13658,"Approved","OW357"
"2023-05-14 21:00",10.13917,"Approved","OW357"
"2023-05-14 22:00",10.14075,"Approved","OW357"
"2023-05-14 23:00",10.14,"Approved","OW357"
"2023-05-15 00:00",10.14042,"Approved","OW357"
"2023-05-15 01:00",10.13817,"Approved","OW357"
"2023-05-15 02:00",10.14025,"Approved","OW357"
"2023-05-15 03:00",10.1425,"Approved","OW357"
"2023-05-15 04:00",10.13758,"Approved","OW357"
"2023-05-15 05:00",10.13992,"Approved","OW357"
"2023-05-15 06:00",10.14442,"Approved","OW357"
"2023-05-15 07:00",10.14133,"Approved","OW357"
"2023-05-15 08:00",10.14375,"Approved","OW357"
"2023-05-15 09:00",10.14108,"Approved","OW357"
"2023-05-15 10:00",10.13758,"Approved","OW357"
"2023-05-15 11:00",10.14042,"Approved","OW357"
"2023-05-15 12:00",10.13658,"Approved","OW357"
"2023-05-15 13:00",10.13892,"Approved","OW357"
"2023-05-15 14:00",10.14167,"Approved","OW357"
"2023-05-15 15:00",10.14142,"Approved","OW357"
"2023-05-15 16:00",10.14108,"Approved","OW357"
"2023-05-15 17:00",10.14342,"Approved","OW357"
"2023-05-15 18:00",10.14225,"Approved","OW357"
"2023-05-15 19:00",10.14158,"Approved","OW357"
"2023-05-15 20:00",10.15025,"Approved","OW357"
"2023-05-15 21:00",10.15417,"Approved","OW357"
"2023-05-15 22:00",10.14883,"Approved","OW357"
"2023-05-15 23:00",10.15833,"Approved","OW357"
"2023-05-16 00:00",10.16617,"Approved","OW357"
"2023-05-16 01:00",10.16317,"Approved","OW357"
"2023-05-16 02:00",10.16567,"Approved","OW357"
"2023-05-16 03:00",10.15992,"Approved","OW357"
"2023-05-16 04:00",10.16517,"Approved","OW357"
"2023-05-16 05:00",10.16417,"Approved","OW357"
"2023-05-16 06:00",10.16883,"Approved","OW357"
"2023-05-16 07:00",10.17067,"Approved","OW357"
"2023-05-16 08:00",10.17433,"Approved","OW357"
"2023-05-16 09:00",10.172,"Approved","OW357"
"2023-05-16 10:00",10.17025,"Approved","OW357"
"2023-05-16 11:00",10.16775,"Approved","OW357"
"2023-05-16 12:00",10.16642,"Approved","OW357"
"2023-05-16 13:00",10.1695,"Approved","OW357"
"2023-05-16 14:00",10.16875,"Approved","OW357"
"2023-05-16 15:00",10.16233,"Approved","OW357"
"2023-05-16 16:00",10.16442,"Approved","OW357"
"2023-05-16 17:00",10.16325,"Approved","OW357"
"2023-05-16 18:00",10.16525,"Approved","OW357"
"2023-05-16 19:00",10.1685,"Approved","OW357"
"2023-05-16 20:00",10.16892,"Approved","OW357"
"2023-05-16 21:00",10.17158,"Approved","OW357"
"2023-05-16 22:00",10.16867,"Approved","OW357"
"2023-05-16 23:00",10.1685,"Approved","OW357"
"2023-05-17 00:00",10.171,"Approved","OW357"
"2023-05-17 01:00",10.17025,"Approved","OW357"
"2023-05-17 02:00",10.171,"Approved","OW357"
"2023-05-17 03:00",10.17325,"Approved","OW357"
"2023-05-17 04:00",10.17208,"Approved","OW357"
"2023-05-17 05:00",10.175,"Approved","OW357"
"2023-05-17 06:00",10.17375,"Approved","OW357"
"2023-05-17 07:00",10.16842,"Approved","OW357"
"2023-05-17 08:00",10.16992,"Approved","OW357"
"2023-05-17 09:00",10.172,"Approved","OW357"
"2023-05-17 10:00",10.17058,"Approved","OW357"
"2023-05-17 11:00",10.16558,"Approved","OW357"
"2023-05-17 12:00",10.16883,"Approved","OW357"
"2023-05-17 13:00",10.16542,"Approved","OW357"
"2023-05-17 14:00",10.16625,"Approved","OW357"
"2023-05-17 15:00",10.1635,"Approved","OW357"
"2023-05-17 16:00",10.1615,"Approved","OW357"
"2023-05-17 17:00",10.16567,"Approved","OW357"
"2023-05-17 18:00",10.1645,"Approved","OW357"
"2023-05-17 19:00",10.16667,"Approved","OW357"
"2023-05-17 20:00",10.16508,"Approved","OW357"
"2023-05-17 21:00",10.17175,"Approved","OW357"
"2023-05-17 22:00",10.1735,"Approved","OW357"
"2023-05-17 23:00",10.17125,"Approved","OW357"
"2023-05-18 00:00",10.17317,"Approved","OW357"
"2023-05-18 01:00",10.17492,"Approved","OW357"
"2023-05-18 02:00",10.17925,"Approved","OW357"
"2023-05-18 03:00",10.179,"Approved","OW357"
"2023-05-18 04:00",10.17692,"Approved","OW357"
"2023-05-18 05:00",10.181,"Approved","OW357"
"2023-05-18 06:00",10.18233,"Approved","OW357"
"2023-05-18 07:00",10.18325,"Approved","OW357"
"2023-05-18 08:00",10.18383,"Approved","OW357"
"2023-05-18 09:00",10.18325,"Approved","OW357"
"2023-05-18 10:00",10.18758,"Approved","OW357"
"2023-05-18 11:00",10.18283,"Approved","OW357"
"2023-05-18 12:00",10.18758,"Approved","OW357"
"2023-05-18 13:00",10.18775,"Approved","OW357"
"2023-05-18 14:00",10.18942,"Approved","OW357"
"2023-05-18 15:00",10.192,"Approved","OW357"
"2023-05-18 16:00",10.19242,"Approved","OW357"
"2023-05-18 17:00",10.18833,"Approved","OW357"
"2023-05-18 18:00",10.18558,"Approved","OW357"
"2023-05-18 19:00",10.19142,"Approved","OW357"
"2023-05-18 20:00",10.19658,"Approved","OW357"
"2023-05-18 21:00",10.19642,"Approved","OW357"
"2023-05-18 22:00",10.1995,"Approved","OW357"
"2023-05-18 23:00",10.2005,"Approved","OW357"
"2023-05-19 00:00",10.201,"Approved","OW357"
"2023-05-19 01:00",10.20475,"Approved","OW357"
"2023-05-19 02:00",10.2055,"Approved","OW357"
"2023-05-19 03:00",10.20583,"Approved","OW357"
"2023-05-19 04:00",10.21133,"Approved","OW357"
"2023-05-19 05:00",10.21108,"Approved","OW357"
"2023-05-19 06:00",10.21133,"Approved","OW357"
"2023-05-19 07:00",10.21092,"Approved","OW357"
"2023-05-19 08:00",10.2105,"Approved","OW357"
"2023-05-19 09:00",10.20917,"Approved","OW357"
"2023-05-19 10:00",10.20667,"Approved","OW357"
"2023-05-19 11:00",10.20767,"Approved","OW357"
"2023-05-19 12:00",10.20917,"Approved","OW357"
"2023-05-19 13:00",10.20492,"Approved","OW357"
"2023-05-19 14:00",10.20833,"Approved","OW357"
"2023-05-19 15:00",10.207,"Approved","OW357"
"2023-05-19 16:00",10.20525,"Approved","OW357"
"2023-05-19 17:00",10.20625,"Approved","OW357"
"2023-05-19 18:00",10.20483,"Approved","OW357"
"2023-05-19 19:00",10.20758,"Approved","OW357"
"2023-05-19 20:00",10.21017,"Approved","OW357"
"2023-05-19 21:00",10.21592,"Approved","OW357"
"2023-05-19 22:00",10.21133,"Approved","OW357"
"2023-05-19 23:00",10.21317,"Approved","OW357"
"2023-05-20 00:00",10.21617,"Approved","OW357"
"2023-05-20 01:00",10.21858,"Approved","OW357"
"2023-05-20 02:00",10.21867,"Approved","OW357"
"2023-05-20 03:00",10.22075,"Approved","OW357"
"2023-05-20 04:00",10.22133,"Approved","OW357"
"2023-05-20 05:00",10.22275,"Approved","OW357"
"2023-05-20 06:00",10.22375,"Approved","OW357"
"2023-05-20 07:00",10.22583,"Approved","OW357"
"2023-05-20 08:00",10.22467,"Approved","OW357"
"2023-05-20 09:00",10.22425,"Approved","OW357"
"2023-05-20 10:00",10.22525,"Approved","OW357"
"2023-05-20 11:00",10.2235,"Approved","OW357"
"2023-05-20 12:00",10.22333,"Approved","OW357"
"2023-05-20 13:00",10.226,"Approved","OW357"
"2023-05-20 14:00",10.21983,"Approved","OW357"
"2023-05-20 15:00",10.21783,"Approved","OW357"
"2023-05-20 16:00",10.21983,"Approved","OW357"
"2023-05-20 17:00",10.22108,"Approved","OW357"
"2023-05-20 18:00",10.22283,"Approved","OW357"
"2023-05-20 19:00",10.22042,"Approved","OW357"
"2023-05-20 20:00",10.22458,"Approved","OW357"
"2023-05-20 21:00",10.22867,"Approved","OW357"
"2023-05-20 22:00",10.23083,"Approved","OW357"
"2023-05-20 23:00",10.231,"Approved","OW357"
"2023-05-21 00:00",10.23267,"Approved","OW357"
"2023-05-21 01:00",10.23583,"Approved","OW357"
"2023-05-21 02:00",10.23375,"Approved","OW357"
"2023-05-21 03:00",10.23508,"Approved","OW357"
"2023-05-21 04:00",10.24,"Approved","OW357"
"2023-05-21 05:00",10.24025,"Approved","OW357"
"2023-05-21 06:00",10.242,"Approved","OW357"
"2023-05-21 07:00",10.24342,"Approved","OW357"
"2023-05-21 08:00",10.2435,"Approved","OW357"
"2023-05-21 09:00",10.24433,"Approved","OW357"
"2023-05-21 10:00",10.24,"Approved","OW357"
"2023-05-21 11:00",10.24158,"Approved","OW357"
"2023-05-21 12:00",10.24483,"Approved","OW357"
"2023-05-21 13:00",10.24475,"Approved","OW357"
"2023-05-21 14:00",10.24417,"Approved","OW357"
"2023-05-21 15:00",10.23975,"Approved","OW357"
"2023-05-21 16:00",10.24142,"Approved","OW357"
"2023-05-21 17:00",10.24308,"Approved","OW357"
"2023-05-21 18:00",10.247,"Approved","OW357"
"2023-05-21 19:00",10.24167,"Approved","OW357"
"2023-05-21 20:00",10.24242,"Approved","OW357"
"2023-05-21 21:00",10.24667,"Approved","OW357"
"2023-05-21 22:00",10.24958,"Approved","OW357"
"2023-05-21 23:00",10.24792,"Approved","OW357"
"2023-05-22 00:00",10.252,"Approved","OW357"
"2023-05-22 01:00",10.24667,"Approved","OW357"
"2023-05-22 02:00",10.24833,"Approved","OW357"
"2023-05-22 03:00",10.2525,"Approved","OW357"
"2023-05-22 04:00",10.24783,"Approved","OW357"
"2023-05-22 05:00",10.25058,"Approved","OW357"
"2023-05-22 06:00",10.25058,"Approved","OW357"
"2023-05-22 07:00",10.25233,"Approved","OW357"
"2023-05-22 08:00",10.25008,"Approved","OW357"
"2023-05-22 09:00",10.25133,"Approved","OW357"
"2023-05-22 10:00",10.25458,"Approved","OW357"
"2023-05-22 11:00",10.25342,"Approved","OW357"
"2023-05-22 12:00",10.25642,"Approved","OW357"
"2023-05-22 13:00",10.25592,"Approved","OW357"
"2023-05-22 14:00",10.25892,"Approved","OW357"
"2023-05-22 15:00",10.25542,"Approved","OW357"
"2023-05-22 16:00",10.25708,"Approved","OW357"
"2023-05-22 17:00",10.25708,"Approved","OW357"
"2023-05-22 18:00",10.25458,"Approved","OW357"
"2023-05-22 19:00",10.25492,"Approved","OW357"
"2023-05-22 20:00",10.25567,"Approved","OW357"
"2023-05-22 21:00",10.2545,"Approved","OW357"
"2023-05-22 22:00",10.25567,"Approved","OW357"
"2023-05-22 23:00",10.255,"Approved","OW357"
"2023-05-23 00:00",10.2595,"Approved","OW357"
"2023-05-23 01:00",10.25633,"Approved","OW357"
"2023-05-23 02:00",10.25775,"Approved","OW357"
"2023-05-23 03:00",10.25483,"Approved","OW357"
"2023-05-23 04:00",10.26208,"Approved","OW357"
"2023-05-23 05:00",10.25767,"Approved","OW357"
"2023-05-23 06:00",10.26017,"Approved","OW357"
"2023-05-23 07:00",10.26208,"Approved","OW357"
"2023-05-23 08:00",10.26125,"Approved","OW357"
"2023-05-23 09:00",10.26,"Approved","OW357"
"2023-05-23 10:00",10.26183,"Approved","OW357"
"2023-05-23 11:00",10.26525,"Approved","OW357"
"2023-05-23 12:00",10.25875,"Approved","OW357"
"2023-05-23 13:00",10.26108,"Approved","OW357"
"2023-05-23 14:00",10.2615,"Approved","OW357"
"2023-05-23 15:00",10.25892,"Approved","OW357"
"2023-05-23 16:00",10.26,"Approved","OW357"
"2023-05-23 17:00",10.26483,"Approved","OW357"
"2023-05-23 18:00",10.26292,"Approved","OW357"
"2023-05-23 19:00",10.26467,"Approved","OW357"
"2023-05-23 20:00",10.265,"Approved","OW357"
"2023-05-23 21:00",10.2635,"Approved","OW357"
"2023-05-23 22:00",10.2635,"Approved","OW357"
"2023-05-23 23:00",10.267,"Approved","OW357"
"2023-05-24 00:00",10.26583,"Approved","OW357"
"2023-05-24 01:00",10.26942,"Approved","OW357"
"2023-05-24 02:00",10.2645,"Approved","OW357"
"2023-05-24 03:00",10.26567,"Approved","OW357"
"2023-05-24 04:00",10.26783,"Approved","OW357"
"2023-05-24 05:00",10.26742,"Approved","OW357"
"2023-05-24 06:00",10.26642,"Approved","OW357"
"2023-05-24 07:00",10.26717,"Approved","OW357"
"2023-05-24 08:00",10.27008,"Approved","OW357"
"2023-05-24 09:00",10.26833,"Approved","OW357"
"2023-05-24 10:00",10.27233,"Approved","OW357"
"2023-05-24 11:00",10.26875,"Approved","OW357"
"2023-05-24 12:00",10.27275,"Approved","OW357"
"2023-05-24 13:00",10.27392,"Approved","OW357"
"2023-05-24 14:00",10.26883,"Approved","OW357"
"2023-05-24 15:00",10.26608,"Approved","OW357"
"2023-05-24 16:00",10.2665,"Approved","OW357"
"2023-05-24 17:00",10.26375,"Approved","OW357"
"2023-05-24 18:00",10.2635,"Approved","OW357"
"2023-05-24 19:00",10.26675,"Approved","OW357"
"2023-05-24 20:00",10.2675,"Approved","OW357"
"2023-05-24 21:00",10.27308,"Approved","OW357"
"2023-05-24 22:00",10.27342,"Approved","OW357"
"2023-05-24 23:00",10.273,"Approved","OW357"
"2023-05-25 00:00",10.27042,"Approved","OW357"
"2023-05-25 01:00",10.26992,"Approved","OW357"
"2023-05-25 02:00",10.271,"Approved","OW357"
"2023-05-25 03:00",10.27042,"Approved","OW357"
"2023-05-25 04:00",10.269,"Approved","OW357"
"2023-05-25 05:00",10.27025,"Approved","OW357"
"2023-05-25 06:00",10.27258,"Approved","OW357"
"2023-05-25 07:00",10.27675,"Approved","OW357"
"2023-05-25 08:00",10.27425,"Approved","OW357"
"2023-05-25 09:00",10.276,"Approved","OW357"
"2023-05-25 10:00",10.2735,"Approved","OW357"
"2023-05-25 11:00",10.27092,"Approved","OW357"
"2023-05-25 12:00",10.27292,"Approved","OW357"
"2023-05-25 13:00",10.2725,"Approved","OW357"
"2023-05-25 14:00",10.2725,"Approved","OW357"
"2023-05-25 15:00",10.269,"Approved","OW357"
"2023-05-25 16:00",10.27,"Approved","OW357"
"2023-05-25 17:00",10.26742,"Approved","OW357"
"2023-05-25 18:00",10.26967,"Approved","OW357"
"2023-05-25 19:00",10.27017,"Approved","OW357"
"2023-05-25 20:00",10.2745,"Approved","OW357"
"2023-05-25 21:00",10.27717,"Approved","OW357"
"2023-05-25 22:00",10.2755,"Approved","OW357"
"2023-05-25 23:00",10.278,"Approved","OW357"
"2023-05-26 00:00",10.27983,"Approved","OW357"
"2023-05-26 01:00",10.2775,"Approved","OW357"
"2023-05-26 02:00",10.27867,"Approved","OW357"
"2023-05-26 03:00",10.28175,"Approved","OW357"
"2023-05-26 04:00",10.28167,"Approved","OW357"
"2023-05-26 05:00",10.28492,"Approved","OW357"
"2023-05-26 06:00",10.285,"Approved","OW357"
"2023-05-26 07:00",10.28867,"Approved","OW357"
"2023-05-26 08:00",10.28675,"Approved","OW357"
"2023-05-26 09:00",10.28667,"Approved","OW357"
"2023-05-26 10:00",10.28233,"Approved","OW357"
"2023-05-26 11:00",10.28467,"Approved","OW357"
"2023-05-26 12:00",10.28783,"Approved","OW357"
"2023-05-26 13:00",10.28475,"Approved","OW357"
"2023-05-26 14:00",10.28042,"Approved","OW357"
"2023-05-26 15:00",10.28383,"Approved","OW357"
"2023-05-26 16:00",10.28475,"Approved","OW357"
"2023-05-26 17:00",10.28433,"Approved","OW357"
"2023-05-26 18:00",10.286,"Approved","OW357"
"2023-05-26 19:00",10.28325,"Approved","OW357"
"2023-05-26 20:00",10.28433,"Approved","OW357"
"2023-05-26 21:00",10.28875,"Approved","OW357"